Regional Weather Roundup
Issued by NWS Raleigh/Durham, NC

Home | Current Version | Previous Version | Text Only | Print | Product List | Glossary On
Versions: 1 2 3 4 5 6 7 8 9 10 11 12 13 14 15 16 17 18 19 20 21 22 23 24 25 26 27 28 29 30 31 32 33 34 35 36 37 38 39 40 41 42 43 44 45 46 47 48 49 50
000
ASUS42 KRAH 300210
RWRRAH
NORTH CAROLINA WEATHER ROUNDUP
NATIONAL WEATHER SERVICE RALEIGH NC
900 PM EST THU JAN 29 2015

NOTE: "FAIR" INDICATES FEW OR NO CLOUDS BELOW 12,000 FEET WITH NO
SIGNIFICANT WEATHER AND/OR OBSTRUCTIONS TO VISIBILITY.

NCZ001-053-055-056-065-067-300300-
WESTERN NORTH CAROLINA

CITY           SKY/WX    TMP DP  RH WIND       PRES   REMARKS
ASHEVILLE      CLOUDY    43  27  53 S5        30.06F
JEFFERSON      CLOUDY    38  24  57 SE3       29.98F
MORGANTON      CLOUDY    38  31  76 CALM      30.09F
HICKORY        CLOUDY    44  22  41 S7        30.05F
RUTHERFORDTON  PTCLDY    42  25  49 S6        30.08F
MOUNT AIRY     CLOUDY    44  26  50 S3        30.05F
BOONE          MOCLDY    38  25  60 SE6       30.00S WCI  33
$$

NCZ021-022-025-041-071-084-088-300300-
CENTRAL NORTH CAROLINA

CITY           SKY/WX    TMP DP  RH WIND       PRES   REMARKS
CHARLOTTE      PTCLDY    44  22  41 SW5       30.10S
GREENSBORO     MOCLDY    38  25  59 SW6       30.06S WCI  33
WINSTON-SALEM  CLOUDY    41  24  51 S3        30.07F
RALEIGH-DURHAM MOCLDY    39  23  52 CALM      30.09F
FORT BRAGG     MOCLDY    46  27  49 S5        30.10S
FAYETTEVILLE   MOCLDY    45  29  53 S7        30.11F
BURLINGTON     CLEAR     37  24  59 S6        30.07S WCI  32
LAURINBURG     CLOUDY    46  28  49 S8        30.13R
$$

NCZ011-015-027-028-043-044-047-080-103-300300-
NORTHEASTERN NORTH CAROLINA

CITY           SKY/WX    TMP DP  RH WIND       PRES   REMARKS
ROCKY MT-WILSO PTCLDY    38  23  55 S3        30.11R
GREENVILLE     PTCLDY    43  25  49 SW8       30.13S
WASHINGTON     MOCLDY    42  24  48 S6        30.12F
ELIZABETH CITY CLOUDY    40  24  53 S9        30.12F WCI  34
MANTEO         CLOUDY    41  28  60 S14       30.14S
CAPE HATTERAS  CLOUDY    45  34  65 SW7       30.16F
$$

NCZ078-087-090-091-093-098-101-300300-
SOUTHEASTERN NORTH CAROLINA

CITY           SKY/WX    TMP DP  RH WIND       PRES   REMARKS
LUMBERTON      MOCLDY    47  33  58 S7        30.11F
GOLDSBORO      CLOUDY    44  34  67 S2        30.09F
KINSTON        PTCLDY    45  28  53 S10       30.11F
KENANSVILLE    LGT RAIN  44  29  56 S3        30.13F
NEW BERN       LGT RAIN  45  30  55 S8        30.15F
CHERRY POINT   CLOUDY    41  35  79 CALM      30.16F
BEAUFORT       CLOUDY    49  38  65 SW10      30.15F
JACKSONVILLE   CLOUDY    45  35  68 S5        30.14F
WILMINGTON     CLOUDY    46  35  65 S6        30.14F
$$



USA.gov is the U.S. government's official web portal to all federal, state and local government web resources and services.